GW7254 Weather Reports


time (UTC)temp
C
wind
direction
speed
KPH
gust
KPH
rain 1hr
cm
rain 24hr
cm
rain mn
cm
humidity
%
barometer
mb
20260503175305 14 112 0.0 0.0 0.00 0.00 0.00 72 1012.8
20260503174800 14 112 0.0 0.0 0.00 0.00 0.00 73 1012.7
20260503174259 14 101 4.8 4.8 0.00 0.00 0.00 70 1012.8
20260503173754 14 113 0.0 0.0 0.00 0.00 0.00 72 1012.5
20260503173250 13 110 0.0 0.0 0.00 0.00 0.00 75 1012.8
20260503172747 13 110 0.0 0.0 0.00 0.00 0.00 75 1012.5
20260503172244 13 110 0.0 0.0 0.00 0.00 0.00 79 1012.5
20260503171740 13 110 4.8 4.8 0.00 0.00 0.00 76 1012.5
20260503171237 14 106 0.0 0.0 0.00 0.00 0.00 72 1012.6
20260503170734 15 258 0.0 0.0 0.00 0.00 0.00 70 1012.5
20260503170231 15 95 0.0 4.8 0.00 0.00 0.00 70 1012.4
20260503160153 12 119 0.0 0.0 0.00 0.00 0.00 76 1012.3
20260503150623 12 179 0.0 0.0 0.00 0.00 0.00 76 1012.0
20260503150119 12 178 0.0 0.0 0.00 0.00 0.00 75 1011.9
20260503131013 -17 0.0 0.0 0.00 0.00 0.00 1010.7
20260503130510 -17 0.0 0.0 0.00 0.00 0.00 1010.4
20260503110401 -17 0.0 0.0 0.00 0.00 0.00 1010.3
20260503090252 -17 0.0 0.0 0.00 0.00 0.00 1010.8
20260503081219 -17 0.0 0.0 0.00 0.00 0.00 1011.0
20260503080715 -17 0.0 0.0 0.00 0.00 0.00 1011.0
20260503080212 -17 0.0 0.0 0.00 0.00 0.00 1011.0
20260503072649 -17 0.0 0.0 0.00 0.00 0.00 1011.2
20260503072146 -17 0.0 0.0 0.00 0.00 0.00 1011.1
20260503071642 -17 0.0 0.0 0.00 0.00 0.00 1011.1
20260503071139 -17 0.0 0.0 0.00 0.00 0.00 1011.1
20260503070636 12 286 0.0 0.0 0.00 0.00 0.00 80 1011.2
20260503070135 12 286 0.0 0.0 0.00 0.00 0.00 80 1011.2
20260503060104 -17 0.0 0.0 0.00 0.00 0.00 1011.8
20260503055055 -17 0.0 0.0 0.00 0.00 0.00 1011.7
20260503054551 -17 0.0 0.0 0.00 0.00 0.00 1012.0
20260503054048 -17 0.0 0.0 0.00 0.00 0.00 1011.8
20260503053546 -17 0.0 0.0 0.00 0.00 0.00 1012.2
20260503053044 -17 0.0 0.0 0.00 0.00 0.00 1012.1
20260503052541 -17 0.0 0.0 0.00 0.00 0.00 1011.9
20260503052037 -17 0.0 0.0 0.00 0.00 0.00 1011.9
20260503051532 12 91 0.0 0.0 0.00 0.00 0.00 80 1012.2
20260503051031 12 91 0.0 0.0 0.00 0.00 0.00 80 1012.0
20260503050526 12 91 0.0 0.0 0.00 0.00 0.00 80 1011.9
20260503050024 12 90 0.0 0.0 0.00 0.00 0.00 79 1011.9
20260503045520 12 90 0.0 0.0 0.00 0.00 0.00 79 1011.8
20260503045018 12 90 0.0 0.0 0.00 0.00 0.00 79 1011.8
20260503044514 12 90 0.0 0.0 0.00 0.00 0.00 79 1011.7
20260503044012 12 90 0.0 0.0 0.00 0.00 0.00 79 1011.6
20260503043508 12 90 0.0 0.0 0.00 0.00 0.00 80 1011.6
20260503043005 12 90 0.0 0.0 0.00 0.00 0.00 79 1011.8
20260503042502 11 90 0.0 0.0 0.00 0.00 0.00 79 1011.6
20260503041958 11 90 0.0 0.0 0.00 0.00 0.00 79 1011.6
20260503041455 12 90 0.0 0.0 0.00 0.00 0.00 79 1011.4
20260503040953 12 90 0.0 0.0 0.00 0.00 0.00 79 1011.3
20260503040450 12 90 0.0 0.0 0.00 0.00 0.00 79 1011.3
20260503035947 12 90 0.0 0.0 0.00 0.00 0.00 79 1011.3
20260503035443 12 90 0.0 0.0 0.00 0.00 0.00 79 1011.2
20260503034941 12 90 0.0 0.0 0.00 0.00 0.00 78 1011.3
20260503034438 12 90 0.0 0.0 0.00 0.00 0.00 78 1011.3
20260503033935 12 90 0.0 0.0 0.00 0.00 0.00 78 1011.1
20260503033432 12 90 0.0 0.0 0.00 0.00 0.00 77 1011.2
20260503032930 12 90 0.0 0.0 0.00 0.00 0.00 77 1010.9
20260503032429 12 90 0.0 0.0 0.00 0.00 0.00 77 1010.9
20260503031926 12 91 0.0 0.0 0.00 0.00 0.00 78 1010.8
20260503031424 12 90 0.0 0.0 0.00 0.00 0.00 77 1010.8
20260503030920 12 90 0.0 0.0 0.00 0.00 0.00 76 1010.8
20260503030417 12 89 0.0 0.0 0.00 0.00 0.00 76 1010.9
20260503025914 12 89 0.0 0.0 0.00 0.00 0.00 76 1010.6
20260503025411 12 90 0.0 0.0 0.00 0.00 0.00 76 1010.5
20260503024908 12 89 1.6 3.2 0.00 0.00 0.00 75 1010.6
20260503024405 12 88 0.0 0.0 0.00 0.00 0.00 74 1010.7
20260503023902 13 87 3.2 4.8 0.00 0.00 0.00 73 1010.3
20260503023359 13 87 3.2 4.8 0.00 0.00 0.00 73 1010.4
20260503022856 13 110 0.0 0.0 0.00 0.00 0.00 73 1010.7
20260503022355 13 108 0.0 0.0 0.00 0.00 0.00 73 1010.3
20260503021852 13 116 1.6 3.2 0.00 0.00 0.00 72 1010.5
20260503021348 13 90 0.0 0.0 0.00 0.00 0.00 72 1010.4
20260503020846 13 103 0.0 0.0 0.00 0.00 0.00 71 1010.5
20260503020344 13 103 0.0 0.0 0.00 0.00 0.00 71 1010.6
20260503015840 14 160 1.6 3.2 0.00 0.00 0.00 69 1010.4
20260503015337 14 165 0.0 0.0 0.00 0.00 0.00 69 1010.5
20260503014832 -17 0.0 0.0 0.00 0.00 0.00 1010.6
20260503014330 -17 0.0 0.0 0.00 0.00 0.00 1010.4
20260503013828 -17 0.0 0.0 0.00 0.00 0.00 1010.2
20260503013325 -17 0.0 0.0 0.00 0.00 0.00 1010.4
20260503012822 -17 0.0 0.0 0.00 0.00 0.00 1010.7
20260503012320 -17 0.0 0.0 0.00 0.00 0.00 1010.5
20260503011816 16 122 6.4 6.4 0.00 0.00 0.00 65 1010.7
20260503011313 16 122 6.4 6.4 0.00 0.00 0.00 65 1010.7
20260503010809 16 115 1.6 3.2 0.00 0.00 0.00 65 1010.7
20260503010307 16 115 1.6 3.2 0.00 0.00 0.00 65 1010.5
20260503005803 16 103 1.6 3.2 0.00 0.00 0.00 66 1010.4
20260503005301 16 96 0.0 1.6 0.00 0.00 0.00 64 1010.5
20260503004756 17 104 0.0 0.0 0.00 0.00 0.00 62 1010.6
20260503004255 17 103 0.0 0.0 0.00 0.00 0.00 63 1010.7
20260503003752 17 103 0.0 0.0 0.00 0.00 0.00 62 1010.5
20260503003249 17 99 0.0 0.0 0.00 0.00 0.00 61 1010.5
20260503002745 17 99 0.0 0.0 0.00 0.00 0.00 61 1010.5
20260503002242 17 105 1.6 1.6 0.00 0.00 0.00 62 1010.5
20260503001738 -17 0.0 0.0 0.00 0.00 0.00 1010.7
20260503001235 -17 0.0 0.0 0.00 0.00 0.00 1010.6
20260503000733 -17 0.0 0.0 0.00 0.00 0.00 1010.6
20260503000233 -17 0.0 0.0 0.00 0.00 0.00 1010.7
20260502235727 -17 0.0 0.0 0.00 0.00 0.00 1010.8
20260502235225 -17 0.0 0.0 0.00 0.00 0.00 1010.5
20260502234721 -17 0.0 0.0 0.00 0.00 0.00 1010.7
20260502234218 -17 0.0 0.0 0.00 0.00 0.00 1010.8
20260502233714 17 270 1.6 1.6 0.00 0.00 0.00 58 1010.8
20260502233211 17 270 1.6 1.6 0.00 0.00 0.00 58 1010.8
20260502232707 -17 0.0 0.0 0.00 0.00 0.00 1011.0
20260502232204 17 106 3.2 4.8 0.00 0.00 0.00 60 1011.2
20260502231701 17 106 3.2 4.8 0.00 0.00 0.00 60 1011.2
20260502231159 17 103 0.0 0.0 0.00 0.00 0.00 59 1011.3
20260502230657 18 112 9.7 9.7 0.00 0.00 0.00 54 1011.3
20260502230155 -17 0.0 0.0 0.00 0.00 0.00 1011.4
20260502225650 -17 0.0 0.0 0.00 0.00 0.00 1011.5
20260502225148 18 304 0.0 0.0 0.00 0.00 0.00 56 1011.5
20260502224644 18 304 0.0 0.0 0.00 0.00 0.00 56 1011.7
20260502224141 18 98 3.2 4.8 0.00 0.00 0.00 57 1011.6
20260502223639 -17 0.0 0.0 0.00 0.00 0.00 1011.8
20260502223137 18 114 0.0 0.0 0.00 0.00 0.00 58 1011.7
20260502222634 18 114 0.0 0.0 0.00 0.00 0.00 58 1011.9
20260502222130 18 208 0.0 0.0 0.00 0.00 0.00 60 1011.9
20260502221626 18 208 0.0 0.0 0.00 0.00 0.00 60 1012.2
20260502221123 18 105 0.0 0.0 0.00 0.00 0.00 59 1012.1
20260502220620 -17 0.0 0.0 0.00 0.00 0.00 1012.2
20260502220116 18 23 0.0 0.0 0.00 0.00 0.00 59 1012.3
20260502215613 18 23 0.0 0.0 0.00 0.00 0.00 59 1012.2
20260502215110 18 170 0.0 0.0 0.00 0.00 0.00 59 1012.5
20260502214607 18 170 0.0 0.0 0.00 0.00 0.00 59 1012.2
20260502214104 18 87 0.0 0.0 0.00 0.00 0.00 58 1012.0
20260502213602 18 90 0.0 0.0 0.00 0.00 0.00 60 1012.3
20260502213059 17 112 3.2 3.2 0.00 0.00 0.00 63 1012.4
20260502212558 17 112 3.2 3.2 0.00 0.00 0.00 63 1012.3
20260502212055 18 94 0.0 1.6 0.00 0.00 0.00 62 1012.4
20260502211550 18 100 1.6 1.6 0.00 0.00 0.00 62 1012.5
20260502211048 17 83 1.6 1.6 0.00 0.00 0.00 62 1012.5
20260502210545 17 101 0.0 1.6 0.00 0.00 0.00 62 1012.6
20260502210042 17 329 0.0 1.6 0.00 0.00 0.00 62 1012.6
20260502205538 17 329 0.0 1.6 0.00 0.00 0.00 62 1012.7
20260502205036 17 108 0.0 0.0 0.00 0.00 0.00 61 1012.8
20260502204532 18 239 0.0 0.0 0.00 0.00 0.00 62 1013.1
20260502204030 18 239 0.0 0.0 0.00 0.00 0.00 62 1012.9
20260502203527 17 309 0.0 0.0 0.00 0.00 0.00 65 1013.0
20260502203024 -17 0.0 0.0 0.00 0.00 0.00 1013.0
20260502202520 17 276 0.0 0.0 0.00 0.00 0.00 65 1013.1
20260502202019 17 276 0.0 0.0 0.00 0.00 0.00 65 1013.1
20260502201514 -17 0.0 0.0 0.00 0.00 0.00 1013.4
20260502201010 16 307 0.0 0.0 0.00 0.00 0.00 70 1013.3
20260502200506 16 307 0.0 0.0 0.00 0.00 0.00 70 1013.1
20260502200004 -17 0.0 0.0 0.00 0.00 0.00 1013.4
20260502195502 -17 0.0 0.0 0.00 0.00 0.00 1013.3
20260502194957 15 15 0.0 0.0 0.00 0.00 0.00 72 1013.4
20260502194455 15 15 0.0 0.0 0.00 0.00 0.00 72 1013.3
20260502193950 15 0 0.0 0.0 0.00 0.00 0.00 73 1013.5
20260502193448 15 2 0.0 1.6 0.00 0.00 0.00 74 1013.3
20260502192944 15 318 0.0 0.0 0.00 0.00 0.00 72 1013.5
20260502192440 15 294 0.0 0.0 0.00 0.00 0.00 75 1013.4
20260502191937 15 290 0.0 0.0 0.00 0.00 0.00 74 1013.3
20260502191435 15 322 0.0 4.8 0.00 0.00 0.00 75 1013.5
20260502190933 15 278 0.0 0.0 0.00 0.00 0.00 76 1013.4
20260502190429 15 277 0.0 0.0 0.00 0.00 0.00 74 1013.4
20260502185926 15 278 0.0 3.2 0.00 0.00 0.00 75 1013.3
20260502185421 15 280 0.0 0.0 0.00 0.00 0.00 76 1013.2
20260502184919 15 116 1.6 3.2 0.00 0.00 0.00 74 1013.5
20260502184414 15 286 1.6 3.2 0.00 0.00 0.00 76 1013.2
20260502183911 15 257 0.0 1.6 0.00 0.00 0.00 75 1013.3
20260502183407 15 126 0.0 0.0 0.00 0.00 0.00 75 1013.3
20260502182902 15 223 0.0 0.0 0.00 0.00 0.00 75 1013.3
20260502182358 15 232 0.0 0.0 0.00 0.00 0.00 75 1013.1
20260502181854 15 231 0.0 0.0 0.00 0.00 0.00 75 1013.4
20260502181353 15 300 3.2 4.8 0.00 0.00 0.00 75 1013.4
20260502180851 15 167 0.0 0.0 0.00 0.00 0.00 75 1013.3
20260502180348 15 308 0.0 0.0 0.00 0.00 0.00 75 1013.2